Weather History for YWLM - June, 2013

Change the Weather History Date:

Saturday, June 8, 2013

  Actual Average Record
Temperature  
Mean Temperature 58 °F -  
Max Temperature 64 °F - - ()
Min Temperature 52 °F - - ()
Degree Days  
Heating Degree Days 7    
Growing Degree Days 8 (Base 50)    
Moisture  
Dew Point 54 °F    
Average Humidity 83    
Maximum Humidity 100    
Minimum Humidity 50    
Precipitation  
Precipitation 0.01 in - - ()
Sea Level Pressure  
Sea Level Pressure 30.37 in    
Wind  
Wind Speed 7 mph ()    
Max Wind Speed 12 mph    
Max Gust Speed -    
Visibility 5.7 miles    
Events Rain    
T = Trace of Precipitation, MM = Missing Value Source: Averaged Metar Reports

Daily Weather History Graph

Daily Weather History Graph

Search for Another Location

Airport or City:

Trip Planner

Search our weather history database for the weather conditions in past years. The results will help you decide how hot, cold, wet, or windy it might be!

Date:

Astronomy

Jun. 08, 2013 Rise Set
Actual Time 6:50 AM AEST 4:53 PM AEST
Civil Twilight 6:22 AM AEST 5:20 PM AEST
Nautical Twilight 5:52 AM AEST 5:50 PM AEST
Astronomical Twilight 5:22 AM AEST 6:20 PM AEST
Moon 6:08 AM AEST (6/8) 4:40 PM AEST (6/8)
Length of Visible Light 10h 57m
Length of Day
10h 02m
Waning Crescent, 0% of the Moon is Illuminated
Jun 8
Waning Crescent
Jun 9
New
Jun 17
First Quarter
Jun 23
Full
Jun 30
Last Quarter

Hourly Weather History & Observations

Time (AEST) Temp. Dew Point Humidity Pressure Visibility Wind Dir Wind Speed Gust Speed Precip Events Conditions
12:00 AM 54 °F 49 °F 78% 30.30 in - WNW 9.2 mph - -  
12:00 AM 53.6 °F 50.0 °F 88% 30.27 in 6.2 mi WNW 9.2 mph - N/A   Unknown
12:30 AM 53.6 °F 48.2 °F 82% 30.27 in 6.2 mi West 9.2 mph - N/A   Unknown
1:00 AM 54 °F 49 °F 76% 30.30 in - WNW 9.2 mph - -  
1:00 AM 53.6 °F 48.2 °F 82% 30.30 in 6.2 mi WNW 9.2 mph - N/A   Unknown
1:30 AM 55.4 °F 48.2 °F 77% 30.30 in 6.2 mi West 9.2 mph - N/A   Mostly Cloudy
2:00 AM 57.2 °F 50.0 °F 77% 30.30 in 6.2 mi WSW 8.1 mph - N/A   Mostly Cloudy
2:23 AM 57.2 °F 55.4 °F 94% 30.30 in 6.2 mi SW 9.2 mph - N/A Rain Light Rain Showers
2:30 AM 57.2 °F 55.4 °F 94% 30.30 in 6.2 mi SW 10.4 mph - N/A Rain Light Rain Showers
2:51 AM 57.2 °F 55.4 °F 94% 30.30 in 6.2 mi SSW 11.5 mph - N/A Rain Light Rain Showers
3:00 AM 58 °F 56 °F 89% 30.31 in - SW 11.5 mph - -   Overcast
3:00 AM 57.2 °F 55.4 °F 94% 30.30 in 6.2 mi SW 11.5 mph - N/A Rain Light Rain Showers
3:30 AM 57.2 °F 55.4 °F 94% 30.30 in 6.2 mi WSW 8.1 mph - N/A Rain Light Rain Showers
4:00 AM 58 °F 56 °F 90% 30.31 in - SW 8.1 mph - -  
4:00 AM 57.2 °F 55.4 °F 94% 30.30 in 6.2 mi SW 8.1 mph - N/A   Overcast
4:30 AM 59.0 °F 57.2 °F 94% 30.30 in 6.2 mi SSW 10.4 mph - N/A   Overcast
5:00 AM 59.0 °F 55.4 °F 88% 30.33 in 6.2 mi SSW 11.5 mph - N/A   Overcast
5:39 AM 59.0 °F 57.2 °F 94% 30.33 in 3.7 mi SSW 8.1 mph - N/A Rain Light Rain Showers
6:00 AM 58 °F 56 °F 93% 30.36 in 4 mi SW 8.1 mph - -   Overcast
6:00 AM 57.2 °F 57.2 °F 100% 30.33 in 3.7 mi SW 8.1 mph - N/A Rain Light Rain Showers
6:28 AM 57.2 °F 57.2 °F 100% 30.36 in 6.2 mi SW 9.2 mph - N/A Rain Light Rain Showers
6:30 AM 57.2 °F 55.4 °F 94% 30.36 in 6.2 mi SW 9.2 mph - N/A Rain Light Rain Showers
7:00 AM 57 °F 56 °F 95% 30.39 in - SW 8.1 mph - -  
7:00 AM 57.2 °F 55.4 °F 94% 30.36 in 6.2 mi SW 8.1 mph - N/A Rain Light Rain Showers
7:06 AM 57.2 °F 55.4 °F 94% 30.36 in 3.7 mi SW 6.9 mph - N/A Rain Light Rain Showers
7:16 AM 57.2 °F 55.4 °F 94% 30.39 in 5.0 mi SW 8.1 mph - N/A Rain Light Rain Showers
7:18 AM 57.2 °F 55.4 °F 94% 30.39 in 3.7 mi SW 8.1 mph - N/A Rain Light Rain Showers
7:30 AM 57.2 °F 55.4 °F 94% 30.39 in 4.3 mi WSW 6.9 mph - N/A Rain Rain Showers
7:38 AM 57.2 °F 55.4 °F 94% 30.39 in 6.2 mi West 6.9 mph - N/A Rain Rain Showers
7:54 AM 57.2 °F 55.4 °F 94% 30.39 in 3.7 mi West 5.8 mph - N/A Rain Rain Showers
8:00 AM 57.2 °F 55.4 °F 94% 30.39 in - West 5.8 mph - N/A Rain Heavy Rain
8:30 AM 57.2 °F 55.4 °F 94% 30.39 in - WSW 5.8 mph - N/A Rain Heavy Rain
9:00 AM 58 °F 56 °F 92% 30.43 in 5 mi West 6.9 mph - -   Overcast
9:00 AM 57.2 °F 57.2 °F 100% 30.42 in 5.0 mi West 6.9 mph - N/A Rain Rain
9:03 AM 57.2 °F 57.2 °F 100% 30.42 in 5.6 mi West 6.9 mph - N/A   Heavy Drizzle
9:31 AM 59.0 °F 55.4 °F 88% 30.42 in 3.7 mi WSW 5.8 mph - N/A   Drizzle
9:47 AM 59.0 °F 55.4 °F 88% 30.42 in 6.2 mi WSW 5.8 mph - N/A   Drizzle
10:00 AM 59 °F 56 °F 88% 30.44 in - NW 5.8 mph - -  
10:00 AM 59.0 °F 57.2 °F 94% 30.42 in 6.2 mi NW 5.8 mph - N/A Rain Light Rain Showers
10:29 AM 59.0 °F 55.4 °F 88% 30.42 in 3.7 mi WSW 6.9 mph - N/A Rain Rain Showers
10:30 AM 59.0 °F 55.4 °F 88% 30.42 in 3.7 mi WSW 6.9 mph - N/A Rain Rain Showers
10:45 AM 59.0 °F 57.2 °F 94% 30.42 in 6.2 mi WNW 5.8 mph - N/A Rain Light Rain Showers
11:00 AM 60.8 °F 57.2 °F 88% 30.42 in 6.2 mi SW 5.8 mph - N/A   Overcast
11:30 AM 62.6 °F 51.8 °F 68% 30.42 in 6.2 mi SE 8.1 mph - N/A   Overcast
12:00 PM 64 °F 50 °F 50% 30.42 in - ESE 10.4 mph - -  
12:00 PM 64.4 °F 50.0 °F 59% 30.39 in 6.2 mi ESE 10.4 mph - N/A   Overcast
12:30 PM 64.4 °F 51.8 °F 64% 30.39 in 6.2 mi ESE 9.2 mph - N/A   Overcast
1:00 PM 64 °F 52 °F 55% 30.39 in - ENE 8.1 mph - -  
1:00 PM 64.4 °F 51.8 °F 64% 30.39 in 6.2 mi ENE 8.1 mph - N/A   Overcast
1:30 PM 64.4 °F 50.0 °F 59% 30.36 in 6.2 mi East 11.5 mph - N/A   Overcast
2:00 PM 62.6 °F 50.0 °F 63% 30.36 in 6.2 mi East 10.4 mph - N/A   Overcast
2:30 PM 62.6 °F 50.0 °F 63% 30.36 in 6.2 mi East 8.1 mph - N/A   Overcast
3:00 PM 63 °F 50 °F 52% 30.38 in - East 8.1 mph - -  
3:00 PM 62.6 °F 50.0 °F 63% 30.36 in 6.2 mi East 8.1 mph - N/A   Overcast
3:30 PM 62.6 °F 50.0 °F 63% 30.36 in 6.2 mi East 6.9 mph - N/A   Overcast
4:00 PM 63 °F 52 °F 58% 30.37 in - ENE 5.8 mph - -  
4:00 PM 62.6 °F 51.8 °F 68% 30.36 in 6.2 mi ENE 5.8 mph - N/A   Overcast
4:30 PM 62.6 °F 53.6 °F 72% 30.36 in 6.2 mi NE 4.6 mph - N/A   Overcast
5:00 PM 60.8 °F 53.6 °F 77% 30.36 in 6.2 mi NNE 1.2 mph - N/A   Overcast
5:30 PM 59.0 °F 55.4 °F 88% 30.36 in 6.2 mi Calm Calm - N/A   Overcast
6:00 PM 60 °F 54 °F 76% 30.38 in - Calm Calm - -   Overcast
6:00 PM 59.0 °F 53.6 °F 82% 30.36 in 6.2 mi Calm Calm - N/A   Overcast
6:30 PM 60.8 °F 53.6 °F 77% 30.36 in 6.2 mi East 5.8 mph - N/A   Overcast
7:00 PM 59 °F 55 °F 84% 30.39 in - Calm Calm - -  
7:00 PM 59.0 °F 55.4 °F 88% 30.39 in 6.2 mi Calm Calm - N/A   Overcast
7:30 PM 59.0 °F 53.6 °F 82% 30.39 in 6.2 mi NE 4.6 mph - N/A   Overcast
8:00 PM 60.8 °F 50.0 °F 68% 30.39 in 6.2 mi ENE 5.8 mph - N/A   Overcast
8:30 PM 59.0 °F 51.8 °F 77% 30.39 in 6.2 mi NE 4.6 mph - N/A   Overcast
9:00 PM 58 °F 51 °F 72% 30.40 in - Calm Calm - -  
9:00 PM 57.2 °F 51.8 °F 82% 30.39 in 6.2 mi Calm Calm - N/A   Overcast
9:30 PM 57.2 °F 53.6 °F 88% 30.39 in 6.2 mi Calm Calm - N/A   Overcast
10:00 PM 57 °F 53 °F 84% 30.38 in - Calm Calm - -  
10:00 PM 57.2 °F 53.6 °F 88% 30.36 in 6.2 mi Calm Calm - N/A   Overcast
10:30 PM 55.4 °F 53.6 °F 94% 30.39 in 6.2 mi NW 2.3 mph - N/A   Overcast
11:00 PM 55.4 °F 53.6 °F 94% 30.36 in 6.2 mi Calm Calm - N/A   Overcast
11:30 PM 55.4 °F 51.8 °F 88% 30.36 in 6.2 mi Calm Calm - N/A   Overcast